Location: Tel Aviv
(32.0670°N, 34.7670°E)
Time: 15:13:21
(UTC+03:00)

SRMSAT - Visible Passes

Search period start: 17 September 2024 00:00
Search period end: 27 September 2024 00:00
Orbit: 846 x 864 km, 20.0° (Epoch: 16 September)

Date Brightness Start Highest point End Pass type
(mag) Time Alt. Az. Time Alt. Az. Time Alt. Az.
17 Sep ? 04:08:30 22° SSE 04:08:30 22° SSE 04:11:39 10° SE visible
17 Sep ? 05:51:07 10° WSW 05:55:29 21° S 05:59:50 10° SE visible
18 Sep ? 03:55:53 18° SE 03:55:53 18° SE 03:58:00 10° SE visible
18 Sep ? 05:37:50 11° SW 05:41:48 20° S 05:46:02 10° SE visible
19 Sep ? 03:43:17 14° SE 03:43:17 14° SE 03:44:20 10° SE visible
19 Sep ? 05:25:14 14° SW 05:28:09 19° SSW 05:32:12 10° SSE visible
20 Sep ? 05:12:40 16° SW 05:14:29 18° SSW 05:18:19 10° SSE visible
21 Sep ? 05:00:07 16° SSW 05:00:49 16° SSW 05:04:24 10° SSE visible
22 Sep ? 04:47:37 15° S 04:47:37 15° S 04:50:25 10° SSE visible
23 Sep ? 04:35:07 12° S 04:35:07 12° S 04:36:22 10° SSE visible
26 Sep ? 20:22:32 10° S 20:23:18 11° S 20:23:18 11° S visible
